Hourly Data Report for August 19, 2002

SHERBROOKE A
QUEBEC

45°26'00.000" N
71°41'00.000" W
241.40 m
7028124
71610
YSC

Download Data

Hourly Data (August 2002)
Hourly Data Report for August 19, 2002
TIME
LST
Temp Definition
°C
Dew Point Definition
°C
Rel Hum Definition
%
Precip. Amount Definition
mm

Wind Dir Definition
10's deg

Wind Spd Definition
km/h
Visibility Definition
km
Stn Press Definition
kPa
Hmdx Definition


Wind Chill Definition


Weather Definition


00:00 19.2 12.3 64   24 7 15.0 98.23      
01:00 16.7 12.2 75   27 4 15.0 98.22      
02:00 15.8 11.6 76   25 7 15.0 98.26      
03:00 14.1 12.7 91   29 4 15.0 98.31      
04:00 13.8 12.1 89   22 7 15.0 98.36      
05:00 12.4 11.3 93   19 4 15.0 98.39      
06:00 15.8 14.0 89     0 15.0 98.44      
07:00 17.9 14.7 82   24 6 24.1 98.45     Mainly Clear
08:00 19.7 13.8 69   27 4 24.1 98.43     Mainly Clear
09:00 21.4 14.1 63   28 9 24.1 98.45 25   Mainly Clear
10:00 22.6 14.6 61   28 11 24.1 98.41 26   Mainly Clear
11:00 23.8 13.1 51   26 11 24.1 98.40 27   Mainly Clear
12:00 24.5 13.9 52   28 17 24.1 98.39 28   Mainly Clear
13:00 24.6 14.0 52   26 17 24.1 98.37 28   Mostly Cloudy
14:00 24.1 13.8 53   26 17 24.1 98.36 27   Mostly Cloudy
15:00 22.4 13.4 57   29 15 24.1 98.37 25   Mostly Cloudy
16:00 22.0 13.8 60   31 6 24.1 98.28 25   Mostly Cloudy
17:00 20.9 15.0 69   30 4 15.0 98.26 25    
18:00 19.4 14.9 75   32 6 15.0 98.32      
19:00 18.0 15.1 83     0 15.0 98.31      
20:00 17.4 15.6 89   22 6 15.0 98.40     Rain
21:00 17.2 15.0 87   27 7 15.0 98.44     Rain
22:00 16.1 14.7 91   28 4 15.0 98.47      
23:00 15.5 14.3 93   21 4 15.0 98.50      

Notes on Data Quality.

Legend

  • E = Estimated
  • M = Missing
  • NA = Not Available*
  • [empty] = Indicates an unobserved value
Date modified: